IK2YOU-3 Weather Reports


time (UTC)temp
F
wind
direction
speed
knots
gust
knots
rain 1hr
in
rain 24hr
in
rain mn
in
humidity
%
barometer
mb
20260507060827 57 94 0.0 1.7 0.00 0.00 0.00 83 1010.2
20260507060602 57 94 0.0 1.7 0.00 0.00 0.00 83 1010.2
20260507055349 57 95 0.9 2.6 0.00 0.00 0.00 84 1010.2
20260507054351 57 328 0.0 1.7 0.00 0.00 0.00 84 1010.1
20260507053349 57 321 0.0 0.9 0.00 0.00 0.00 85 1010.1
20260507052349 57 321 0.0 1.7 0.00 0.00 0.00 85 1010.0
20260507051350 56 18 0.0 1.7 0.00 0.00 0.00 86 1009.8
20260507050349 56 18 0.0 0.9 0.00 0.00 0.00 86 1009.7
20260507045348 56 18 0.9 2.6 0.00 0.00 0.00 86 1009.5
20260507044349 55 18 0.0 0.0 0.00 0.00 0.00 85 1009.5
20260507043349 55 18 0.9 2.6 0.00 0.00 0.00 85 1009.3
20260507042349 55 18 1.7 2.6 0.00 0.00 0.00 85 1009.3
20260507041348 55 19 0.0 1.7 0.00 0.00 0.00 85 1009.2
20260507040349 54 19 0.0 1.7 0.00 0.00 0.00 85 1009.1
20260507035349 55 19 0.9 2.6 0.00 0.00 0.00 85 1009.0
20260507034345 55 5 0.9 2.6 0.00 0.00 0.00 85 1009.0
20260507033342 55 5 0.0 2.6 0.00 0.00 0.00 85 1009.0
20260507032343 55 348 0.9 2.6 0.00 0.00 0.00 85 1008.9
20260507031340 55 321 0.0 1.7 0.00 0.00 0.00 84 1008.9
20260507030340 55 320 0.0 1.7 0.00 0.00 0.00 84 1008.9
20260507025340 55 320 0.9 2.6 0.00 0.00 0.00 84 1009.0
20260507024817 56 319 0.9 2.6 0.00 0.00 0.00 84 1008.9
20260507024556 56 319 0.9 2.6 0.00 0.00 0.00 84 1008.9
20260507023339 56 317 0.9 3.5 0.00 0.00 0.00 84 1008.9
20260507022333 56 17 1.7 4.3 0.00 0.00 0.00 84 1008.7
20260507021334 56 9 1.7 4.3 0.00 0.00 0.00 85 1008.6
20260507020814 56 355 1.7 3.5 0.00 0.00 0.00 85 1008.6
20260507020544 56 355 1.7 3.5 0.00 0.00 0.00 85 1008.6
20260507015811 56 324 2.6 5.2 0.00 0.00 0.00 85 1008.6
20260507015545 56 324 2.6 5.2 0.00 0.00 0.00 85 1008.6
20260507014333 56 340 2.6 4.3 0.00 0.00 0.00 85 1008.5
20260507013334 56 5 1.7 3.5 0.00 0.00 0.00 85 1008.6
20260507012333 56 340 1.7 4.3 0.00 0.00 0.00 86 1008.6
20260507011333 56 327 2.6 4.3 0.00 0.00 0.00 86 1008.6
20260507010545 56 334 2.6 0.0 0.00 0.00 0.00 86 1008.7
20260507005410 57 11 1.7 3.5 0.00 0.23 0.00 86 1008.7
20260507004409 56 336 1.7 4.3 0.00 0.23 0.00 86 1008.9
20260507003409 56 308 0.9 1.7 0.00 0.23 0.00 85 1008.8
20260507002846 56 298 1.7 3.5 0.00 0.23 0.00 85 1008.8
20260507002623 56 298 1.7 3.5 0.00 0.23 0.00 85 1008.8
20260507001618 56 286 0.9 1.7 0.00 0.23 0.00 85 1008.7
20260507000420 56 286 0.0 1.7 0.00 0.23 0.00 85 1008.7
20260506235406 56 291 1.7 3.5 0.00 0.23 0.00 85 1008.7
20260506234407 56 319 1.7 3.5 0.00 0.23 0.00 86 1008.7
20260506233406 56 259 0.9 2.6 0.00 0.23 0.00 86 1008.6
20260506232406 56 12 0.9 2.6 0.00 0.23 0.00 85 1008.5
20260506231408 56 13 0.9 3.5 0.00 0.23 0.00 85 1008.4
20260506230406 56 26 0.9 2.6 0.00 0.23 0.00 84 1008.3
20260506225406 56 27 0.9 2.6 0.00 0.23 0.00 83 1008.2
20260506224407 57 27 0.9 4.3 0.00 0.23 0.00 82 1008.1
20260506223407 57 49 3.5 7.0 0.00 0.23 0.00 82 1008.1
20260506222406 57 28 3.5 7.8 0.00 0.23 0.00 83 1008.1
20260506221406 57 58 1.7 4.3 0.00 0.23 0.00 85 1008.1
20260506220406 57 299 0.0 1.7 0.00 0.23 0.00 85 1008.2
20260506215403 57 299 0.0 1.7 0.00 0.23 0.23 85 1008.1
20260506214403 57 299 0.0 2.6 0.00 0.23 0.23 84 1008.2
20260506213404 58 299 1.7 4.3 0.00 0.23 0.23 84 1008.0
20260506212404 58 34 1.7 3.5 0.00 0.23 0.23 84 1008.0
20260506211403 58 44 1.7 3.5 0.00 0.23 0.23 84 1007.9
20260506210403 58 43 0.9 2.6 0.00 0.23 0.23 84 1007.9
20260506205403 58 46 1.7 4.3 0.00 0.23 0.23 84 1007.9
20260506204416 58 32 2.6 7.0 0.00 0.23 0.23 84 1007.8
20260506203404 58 12 1.7 4.3 0.00 0.23 0.23 84 1007.8
20260506202400 58 355 1.7 7.0 0.00 0.23 0.23 83 1007.8
20260506201401 58 32 1.7 4.3 0.00 0.23 0.23 83 1007.6
20260506200359 58 56 2.6 5.2 0.00 0.23 0.23 83 1007.4
20260506195359 58 57 2.6 4.3 0.00 0.23 0.23 83 1007.2
20260506194359 58 49 2.6 7.0 0.00 0.23 0.23 83 1007.2
20260506193403 58 46 2.6 5.2 0.00 0.23 0.23 82 1007.2
20260506192842 58 54 3.5 7.8 0.00 0.23 0.23 82 1007.1
20260506192616 58 54 3.5 7.8 0.00 0.23 0.23 82 1007.1
20260506191401 59 0 3.5 8.7 0.00 0.23 0.23 82 1007.1
20260506190401 59 19 3.5 5.2 0.00 0.23 0.23 82 1007.1
20260506185401 59 41 3.5 7.8 0.00 0.23 0.23 82 1006.9
20260506184401 59 315 2.6 6.1 0.00 0.23 0.23 82 1006.7
20260506183852 59 40 3.5 7.0 0.00 0.23 0.23 82 1006.3
20260506183615 59 40 3.5 7.0 0.00 0.23 0.23 82 1006.3
20260506182402 59 0 2.6 7.0 0.00 0.23 0.23 81 1006.2
20260506181402 60 319 2.6 7.8 0.00 0.23 0.23 81 1006.1
20260506180416 60 348 3.5 7.8 0.00 0.23 0.23 79 1005.9
20260506175402 61 327 3.5 9.6 0.00 0.23 0.23 78 1005.8
20260506174402 61 340 3.5 9.6 0.00 0.23 0.23 77 1005.5
20260506173400 62 323 4.3 9.6 0.00 0.23 0.23 77 1005.3
20260506172401 62 42 3.5 7.8 0.00 0.23 0.23 76 1005.2
20260506171401 62 332 3.5 8.7 0.00 0.23 0.23 76 1005.1
20260506170401 63 334 3.5 9.6 0.00 0.23 0.23 76 1004.9
20260506165401 63 0 4.3 10.4 0.00 0.23 0.23 76 1004.7
20260506164400 63 315 6.1 12.2 0.00 0.23 0.23 75 1004.5
20260506163400 65 332 5.2 13.0 0.00 0.23 0.23 73 1004.3
20260506162401 65 337 6.1 16.5 0.00 0.23 0.23 71 1004.2
20260506161400 68 302 7.0 13.0 0.00 0.23 0.23 68 1003.6
20260506160401 73 313 4.3 12.2 0.00 0.23 0.23 55 1003.6
20260506155401 71 183 3.5 7.8 0.00 0.23 0.23 56 1003.4
20260506154401 71 180 2.6 6.1 0.00 0.23 0.23 59 1003.3
20260506153400 71 176 2.6 5.2 0.00 0.23 0.23 62 1003.4
20260506152401 71 171 2.6 7.0 0.00 0.23 0.23 64 1003.4
20260506151401 72 182 3.5 10.4 0.00 0.23 0.23 71 1003.5
20260506150401 72 112 4.3 10.4 0.00 0.23 0.23 69 1003.5
20260506145401 71 135 4.3 10.4 0.00 0.23 0.23 72 1003.6
20260506144836 71 97 4.3 12.2 0.00 0.23 0.23 75 1003.7
20260506144612 71 97 4.3 12.2 0.00 0.23 0.23 75 1003.7
20260506143401 71 135 5.2 12.2 0.00 0.23 0.23 73 1003.7
20260506142401 72 115 5.2 18.2 0.00 0.23 0.23 72 1003.9
20260506141400 71 136 5.2 13.0 0.00 0.23 0.23 71 1004.1
20260506140401 71 79 5.2 13.9 0.00 0.23 0.23 72 1004.2
20260506135402 71 126 6.1 13.9 0.00 0.23 0.23 71 1004.5
20260506134401 71 144 4.3 13.9 0.00 0.23 0.23 72 1004.5
20260506133836 71 94 4.3 12.2 0.00 0.23 0.23 72 1004.8
20260506133613 71 94 4.3 12.2 0.00 0.23 0.23 72 1004.8
20260506132402 71 81 5.2 11.3 0.00 0.23 0.23 73 1004.8
20260506131401 72 135 4.3 15.6 0.00 0.23 0.23 71 1004.9
20260506130400 71 133 4.3 10.4 0.00 0.23 0.23 73 1004.8
20260506125401 70 109 5.2 13.0 0.00 0.23 0.23 74 1005.0
20260506124401 70 71 4.3 11.3 0.00 0.23 0.23 76 1005.0
20260506123858 68 90 5.2 12.2 0.00 0.23 0.23 78 1004.9
20260506123614 68 90 5.2 12.2 0.00 0.23 0.23 78 1004.9
20260506122402 68 86 7.8 13.0 0.00 0.23 0.23 81 1005.0
20260506121400 68 89 6.1 13.9 0.00 0.23 0.23 81 1005.0
20260506120400 68 102 5.2 14.8 0.00 0.23 0.23 81 1005.2
20260506115841 67 116 6.1 15.6 0.00 0.23 0.23 83 1005.3
20260506115613 67 116 6.1 15.6 0.00 0.23 0.23 83 1005.3
20260506114842 67 90 6.1 13.9 0.00 0.23 0.23 83 1005.4
20260506114614 67 90 6.1 13.9 0.00 0.23 0.23 83 1005.4
20260506113402 67 91 4.3 11.3 0.00 0.23 0.23 83 1005.6
20260506112401 65 120 6.1 13.9 0.00 0.23 0.23 85 1005.5
20260506111401 64 96 5.2 11.3 0.00 0.23 0.23 85 1005.6
20260506110844 63 110 6.1 14.8 0.00 0.23 0.23 85 1005.8
20260506110612 63 110 6.1 14.8 0.00 0.23 0.23 85 1005.8
20260506105400 63 117 6.1 13.0 0.00 0.23 0.23 85 1005.7
20260506104401 63 167 5.2 11.3 0.00 0.23 0.23 84 1005.8
20260506103413 64 72 3.5 10.4 0.00 0.23 0.23 84 1005.8
20260506102400 64 96 5.2 12.2 0.00 0.23 0.23 84 1005.8
20260506101402 63 105 5.2 11.3 0.00 0.23 0.23 85 1005.9
20260506100402 64 104 5.2 13.9 0.00 0.23 0.23 83 1005.9
20260506095416 63 121 5.2 14.8 0.00 0.23 0.23 81 1005.8
20260506094401 63 101 5.2 11.3 0.00 0.23 0.23 76 1005.7
20260506093400 61 78 6.1 12.2 0.01 0.23 0.23 72 1005.8
20260506092401 61 120 6.1 12.2 0.04 0.23 0.23 68 1005.9
20260506091401 60 116 6.1 12.2 0.09 0.23 0.23 68 1005.8
20260506090845 59 97 5.2 10.4 0.13 0.23 0.23 68 1005.8
20260506090614 59 97 5.2 10.4 0.13 0.23 0.23 68 1005.8
20260506085401 58 102 2.6 9.6 0.16 0.23 0.23 68 1005.8
20260506084401 58 113 3.5 8.7 0.16 0.23 0.23 69 1006.2
20260506083401 58 105 2.6 7.0 0.15 0.22 0.22 72 1006.1
20260506082401 58 111 4.3 12.2 0.12 0.19 0.19 72 1006.4
20260506081401 58 98 5.2 10.4 0.07 0.14 0.15 73 1006.2
20260506080836 58 93 3.5 13.0 0.02 0.09 0.10 74 1006.2
20260506080614 58 93 3.5 13.0 0.02 0.09 0.10 74 1006.2
20260506073401 59 115 7.0 13.0 0.00 0.07 0.07 71 1005.7
20260506072414 59 117 6.1 12.2 0.00 0.07 0.07 69 1005.8
20260506071400 58 122 7.8 13.9 0.00 0.07 0.07 68 1005.8
20260506070401 59 92 7.0 13.0 0.00 0.07 0.07 67 1005.9
20260506062405 57 101 4.3 13.0 0.00 0.07 0.07 66 1006.4
20260506061400 57 111 6.1 10.4 0.00 0.07 0.07 66 1006.4